TimeSAST,TemperatureF,Dew PointF,Humidity,Sea Level PressureIn,VisibilityMPH,Wind Direction,Wind SpeedMPH,Gust SpeedMPH,PrecipitationIn,Events,Conditions,WindDirDegrees,DateUTC
2:00 AM,66,61,78,29.95,6,WSW,4.6,,,,,240,2014-03-08 00:00:00
2:00 AM,66.2,60.8,83,29.95,6.2,WSW,4.6,-,N/A,,Overcast,240,2014-03-08 00:00:00
3:00 AM,64.4,60.8,88,29.95,4.3,SW,5.8,-,N/A,,Mostly Cloudy,230,2014-03-08 01:00:00
4:00 AM,62.6,60.8,94,29.92,-9999.0,SW,11.5,-,N/A,,Mostly Cloudy,220,2014-03-08 02:00:00
5:00 AM,63,61,90,29.94,2,West,6.9,,,Rain,Light Rain,260,2014-03-08 03:00:00
5:00 AM,62.6,60.8,94,29.95,1.9,West,6.9,-,N/A,Rain,Light Rain,270,2014-03-08 03:00:00
6:00 AM,62.6,59.0,88,29.95,1.9,NW,8.1,-,N/A,Rain,Light Rain,310,2014-03-08 04:00:00
7:00 AM,62.6,59.0,88,29.95,6.2,NW,8.1,-,N/A,,Mostly Cloudy,320,2014-03-08 05:00:00
8:00 AM,62,57,79,29.99,12,NNW,8.1,,,,Partly Cloudy,330,2014-03-08 06:00:00
8:00 AM,62.6,57.2,82,29.98,6.2,NNW,8.1,-,N/A,,Mostly Cloudy,330,2014-03-08 06:00:00
9:00 AM,64.4,57.2,77,29.98,6.2,WNW,10.4,-,N/A,,Mostly Cloudy,290,2014-03-08 07:00:00
10:00 AM,64.4,57.2,77,30.01,6.2,WNW,9.2,-,N/A,,Mostly Cloudy,290,2014-03-08 08:00:00
11:00 AM,66,56,63,29.99,12,WNW,9.2,,,,Mostly Cloudy,300,2014-03-08 09:00:00
11:00 AM,66.2,57.2,73,30.01,6.2,WNW,9.2,-,N/A,,Mostly Cloudy,300,2014-03-08 09:00:00
12:00 PM,68.0,55.4,64,29.98,6.2,WNW,9.2,-,N/A,,Mostly Cloudy,290,2014-03-08 10:00:00
1:00 PM,69.8,55.4,60,29.98,6.2,NW,4.6,-,N/A,,Mostly Cloudy,320,2014-03-08 11:00:00
2:00 PM,69,56,53,30.00,12,SSW,12.7,,,,Mostly Cloudy,210,2014-03-08 12:00:00
2:00 PM,69.8,55.4,60,29.98,6.2,SSW,12.7,-,N/A,,Scattered Clouds,210,2014-03-08 12:00:00
3:00 PM,68.0,59.0,73,29.98,6.2,SSW,15.0,-,N/A,,Mostly Cloudy,210,2014-03-08 13:00:00
4:00 PM,64.4,59.0,83,30.01,6.2,South,13.8,-,N/A,,Mostly Cloudy,190,2014-03-08 14:00:00
5:00 PM,64,58,75,30.02,6,South,9.2,,,,Mostly Cloudy,180,2014-03-08 15:00:00
5:00 PM,64.4,57.2,77,30.01,5.6,South,9.2,-,N/A,,Mostly Cloudy,180,2014-03-08 15:00:00
6:00 PM,62.6,57.2,82,30.04,6.2,South,8.1,-,N/A,,Mostly Cloudy,180,2014-03-08 16:00:00
7:00 PM,62.6,53.6,72,30.04,6.2,South,6.9,-,N/A,,Mostly Cloudy,180,2014-03-08 17:00:00
8:00 PM,60,56,84,30.08,12,WNW,6.9,,,,Overcast,300,2014-03-08 18:00:00
8:00 PM,60.8,57.2,88,30.06,6.2,WNW,6.9,-,N/A,,Mostly Cloudy,300,2014-03-08 18:00:00
9:00 PM,60.8,55.4,82,30.09,6.2,Variable,2.3,-,N/A,,Overcast,0,2014-03-08 19:00:00
10:00 PM,59.0,55.4,88,30.09,6.2,NNW,4.6,-,N/A,,Overcast,340,2014-03-08 20:00:00
11:00 PM,59.0,55.4,88,30.09,6.2,North,4.6,-,N/A,,Overcast,360,2014-03-08 21:00:00